KJ6SML Weather Reports


Display with metric or nautical units.
time (UTC)temp
F
wind
direction
speed
MPH
gust
MPH
rain 1hr
in
rain 24hr
in
rain mn
in
humidity
%
barometer
mb
20260504214004 71 256 3.0 12.0 0.00 0.00 0.00 29 1006.8
20260504213504 71 306 5.0 14.0 0.00 0.00 0.00 28 1006.7
20260504213009 71 317 5.0 14.0 0.00 0.00 0.00 29 1006.7
20260504212503 70 306 6.0 12.0 0.00 0.00 0.00 29 1006.8
20260504212002 71 130 2.0 12.0 0.00 0.00 0.00 29 1006.7
20260504211510 71 341 5.0 10.0 0.00 0.00 0.00 28 1006.9
20260504211005 71 242 4.0 14.0 0.00 0.00 0.00 28 1006.9
20260504210504 71 289 4.0 14.0 0.00 0.00 0.00 28 1006.8
20260504210007 71 292 6.0 12.0 0.00 0.00 0.00 29 1006.8
20260504205505 70 288 3.0 9.0 0.00 0.00 0.00 30 1006.8
20260504205004 70 22 3.0 10.0 0.00 0.00 0.00 29 1006.8
20260504204508 70 269 3.0 10.0 0.00 0.00 0.00 29 1006.8
20260504203011 72 315 8.0 20.0 0.00 0.00 0.00 27 1006.8
20260504202511 71 298 5.0 17.0 0.00 0.00 0.00 28 1006.7
20260504202007 72 292 4.0 15.0 0.00 0.00 0.00 28 1006.8
20260504201513 71 301 4.0 11.0 0.00 0.00 0.00 28 1006.8
20260504201004 72 273 3.0 12.0 0.00 0.00 0.00 28 1006.8
20260504200505 72 274 2.0 12.0 0.00 0.00 0.00 28 1006.9
20260504200013 71 329 6.0 12.0 0.00 0.00 0.00 28 1006.9
20260504195503 71 331 5.0 14.0 0.00 0.00 0.00 27 1007.0
20260504195005 71 273 3.0 14.0 0.00 0.00 0.00 27 1006.9
20260504194510 72 236 4.0 14.0 0.00 0.00 0.00 27 1006.9
20260504194005 72 331 6.0 14.0 0.00 0.00 0.00 27 1006.9
20260504193505 72 281 3.0 14.0 0.00 0.00 0.00 27 1006.9
20260504193013 72 136 5.0 13.0 0.00 0.00 0.00 27 1006.9
20260504192508 71 255 5.0 13.0 0.00 0.00 0.00 27 1006.8
20260504191004 71 252 6.0 19.0 0.00 0.00 0.00 27 1006.9
20260504190502 71 301 2.0 13.0 0.00 0.00 0.00 28 1007.1
20260504190004 71 311 5.0 15.0 0.00 0.00 0.00 26 1007.0
20260504185503 72 246 7.0 15.0 0.00 0.00 0.00 25 1007.2
20260504185003 72 235 2.0 15.0 0.00 0.00 0.00 27 1007.3
20260504184505 72 250 7.0 15.0 0.00 0.00 0.00 27 1007.3
20260504184004 72 274 5.0 14.0 0.00 0.00 0.00 25 1007.3
20260504183504 71 9 3.0 16.0 0.00 0.00 0.00 26 1007.5
20260504183005 71 334 6.0 16.0 0.00 0.00 0.00 26 1007.6
20260504182505 71 337 5.0 11.0 0.00 0.00 0.00 27 1007.3
20260504181510 71 86 3.0 13.0 0.00 0.00 0.00 27 1007.5
20260504180508 71 352 5.0 11.0 0.00 0.00 0.00 26 1007.5
20260504180015 71 24 6.0 17.0 0.00 0.00 0.00 26 1007.7
20260504175512 70 178 3.0 17.0 0.00 0.00 0.00 27 1007.7
20260504175003 70 343 2.0 14.0 0.00 0.00 0.00 28 1007.8
20260504174504 70 225 5.0 15.0 0.00 0.00 0.00 27 1007.9
20260504174003 70 40 7.0 16.0 0.00 0.00 0.00 28 1007.8
20260504173504 70 301 7.0 16.0 0.00 0.00 0.00 27 1008.0
20260504173006 70 282 5.0 15.0 0.00 0.00 0.00 27 1007.9
20260504172504 69 240 6.0 16.0 0.00 0.00 0.00 29 1008.1
20260504172004 69 319 6.0 16.0 0.00 0.00 0.00 27 1008.1
20260504171510 70 351 7.0 16.0 0.00 0.00 0.00 27 1008.0
20260504171008 69 231 3.0 19.0 0.00 0.00 0.00 28 1007.9
20260504150504 67 142 3.0 13.0 0.00 0.00 0.00 32 1009.3
20260504140502 63 156 4.0 14.0 0.00 0.00 0.00 34 1009.4
20260504130507 58 277 1.0 9.0 0.00 0.00 0.00 44 1010.3
20260504110508 45 269 1.0 6.0 0.00 0.00 0.00 59 1010.6
20260504100503 42 267 0.0 2.0 0.00 0.00 0.00 65 1010.7
20260504082003 44 322 0.0 5.0 0.00 0.00 0.00 60 1010.3
20260504081515 44 291 0.0 4.0 0.00 0.00 0.00 60 1010.2
20260504081007 44 343 0.0 3.0 0.00 0.00 0.00 59 1010.2
20260504080504 44 257 0.0 3.0 0.00 0.00 0.00 61 1010.2
20260504050503 43 279 0.0 2.0 0.00 0.00 0.00 58 1010.2
20260504050012 43 279 0.0 2.0 0.00 0.00 0.00 56 1010.1
20260504045504 43 279 1.0 2.0 0.00 0.00 0.00 58 1010.1
20260504045003 42 279 0.0 2.0 0.00 0.00 0.00 59 1010.2
20260504044514 42 275 1.0 2.0 0.00 0.00 0.00 60 1010.3
20260504044008 41 287 1.0 2.0 0.00 0.00 0.00 62 1010.3
20260504043508 40 294 1.0 3.0 0.00 0.00 0.00 65 1010.3
20260504043021 40 275 1.0 3.0 0.00 0.00 0.00 66 1010.3
20260504042507 39 275 2.0 3.0 0.00 0.00 0.00 66 1010.2
20260504042007 39 269 1.0 3.0 0.00 0.00 0.00 67 1010.2
20260504041520 38 269 1.0 3.0 0.00 0.00 0.00 69 1010.2
20260504041010 38 267 2.0 3.0 0.00 0.00 0.00 69 1010.2
20260504040510 38 274 1.0 2.0 0.00 0.00 0.00 69 1010.1
20260504040025 38 274 1.0 2.0 0.00 0.00 0.00 70 1010.1
20260504035512 38 274 1.0 2.0 0.00 0.00 0.00 69 1010.1
20260504035004 38 260 1.0 2.0 0.00 0.00 0.00 68 1010.0
20260504034510 38 281 0.0 2.0 0.00 0.00 0.00 69 1010.0
20260504034007 37 278 1.0 2.0 0.00 0.00 0.00 69 1010.1
20260504033505 37 280 1.0 2.0 0.00 0.00 0.00 69 1010.0
20260504033017 37 265 1.0 2.0 0.00 0.00 0.00 70 1010.0
20260504032509 37 265 1.0 3.0 0.00 0.00 0.00 70 1010.0
20260504032009 37 268 1.0 3.0 0.00 0.00 0.00 70 1010.0
20260504031524 37 267 1.0 3.0 0.00 0.00 0.00 71 1009.9
20260504031008 37 253 1.0 3.0 0.00 0.00 0.00 71 1009.9
20260504030507 37 266 1.0 3.0 0.00 0.00 0.00 72 1009.9
20260504030023 37 266 1.0 3.0 0.00 0.00 0.00 72 1009.9
20260504025503 37 266 1.0 2.0 0.00 0.00 0.00 71 1009.9
20260504025003 37 266 1.0 2.0 0.00 0.00 0.00 71 1009.8
20260504024507 37 266 1.0 2.0 0.00 0.00 0.00 71 1009.7
20260504024003 37 266 1.0 2.0 0.00 0.00 0.00 71 1009.7
20260504023504 37 266 1.0 2.0 0.00 0.00 0.00 70 1009.7
20260504023013 37 266 1.0 1.0 0.00 0.00 0.00 70 1009.7
20260504022509 37 266 1.0 1.0 0.00 0.00 0.00 70 1009.7
20260504022007 37 266 1.0 1.0 0.00 0.00 0.00 69 1009.7
20260504021520 38 266 1.0 1.0 0.00 0.00 0.00 69 1009.7
20260504021007 38 266 1.0 1.0 0.00 0.00 0.00 69 1009.7
20260504020508 38 266 1.0 1.0 0.00 0.00 0.00 69 1009.7
20260504020022 38 266 1.0 1.0 0.00 0.00 0.00 68 1009.6
20260504015506 38 266 1.0 1.0 0.00 0.00 0.00 68 1009.7
20260504015011 39 266 1.0 1.0 0.00 0.00 0.00 67 1009.7
20260504014506 39 266 1.0 1.0 0.00 0.00 0.00 67 1009.7
20260504014003 39 266 1.0 1.0 0.00 0.00 0.00 67 1009.7
20260504013503 39 266 0.0 1.0 0.00 0.00 0.00 67 1009.6
20260504013012 39 266 1.0 1.0 0.00 0.00 0.00 66 1009.6
20260504012504 39 266 0.0 1.0 0.00 0.00 0.00 67 1009.6
20260504012004 40 266 1.0 1.0 0.00 0.00 0.00 66 1009.6
20260504011512 40 266 0.0 1.0 0.00 0.00 0.00 65 1009.5
20260504011006 40 266 0.0 1.0 0.00 0.00 0.00 64 1009.4
20260504010506 41 266 0.0 1.0 0.00 0.00 0.00 62 1009.4
20260504010018 41 266 1.0 2.0 0.00 0.00 0.00 61 1009.3
20260504005508 42 266 1.0 2.0 0.00 0.00 0.00 61 1009.2
20260504005008 42 266 0.0 0.0 0.00 0.00 0.00 60 1009.1
20260504004526 42 266 0.0 0.0 0.00 0.00 0.00 59 1009.1
20260504004009 43 266 0.0 0.0 0.00 0.00 0.00 57 1009.0
20260504003511 43 266 0.0 0.0 0.00 0.00 0.00 56 1008.9
20260504003006 44 266 0.0 0.0 0.00 0.00 0.00 54 1008.9
20260504002503 45 266 0.0 2.0 0.00 0.00 0.00 52 1008.9
20260504002004 45 266 0.0 2.0 0.00 0.00 0.00 48 1008.8
20260504001511 46 266 0.0 2.0 0.00 0.00 0.00 47 1008.8
20260504001004 46 266 0.0 2.0 0.00 0.00 0.00 47 1008.7
20260504000506 47 266 0.0 2.0 0.00 0.00 0.00 47 1008.7
20260504000042 47 269 0.0 2.0 0.00 0.00 0.00 45 1008.7
20260503235510 48 269 1.0 3.0 0.00 0.00 0.00 44 1008.6
20260503235008 49 309 1.0 3.0 0.00 0.00 0.00 42 1008.5
20260503234522 49 344 0.0 11.0 0.00 0.00 0.00 41 1008.5
20260503234011 50 300 2.0 11.0 0.00 0.00 0.00 40 1008.5
20260503233510 50 294 6.0 9.0 0.00 0.00 0.00 40 1008.4
20260503233023 50 307 2.0 8.0 0.00 0.00 0.00 38 1008.4
20260503232511 50 309 4.0 7.0 0.00 0.00 0.00 39 1008.4
20260503232013 51 292 3.0 10.0 0.00 0.00 0.00 37 1008.2
20260503231509 51 321 1.0 10.0 0.00 0.00 0.00 38 1008.3
20260503231004 51 293 5.0 10.0 0.00 0.00 0.00 37 1008.1
20260503230507 51 337 3.0 9.0 0.00 0.00 0.00 37 1008.1
20260503230016 51 290 2.0 13.0 0.00 0.00 0.00 39 1007.9
20260503225508 51 312 4.0 13.0 0.00 0.00 0.00 36 1007.9
20260503225007 51 300 5.0 12.0 0.00 0.00 0.00 37 1008.0
20260503224519 51 306 4.0 16.0 0.00 0.00 0.00 36 1008.0
20260503224009 51 293 8.0 16.0 0.00 0.00 0.00 36 1008.0
20260503223507 50 313 3.0 18.0 0.00 0.00 0.00 37 1007.7
20260503223028 51 313 1.0 18.0 0.00 0.00 0.00 38 1007.8
20260503222510 51 292 9.0 17.0 0.00 0.00 0.00 36 1007.8
20260503222010 51 237 4.0 20.0 0.00 0.00 0.00 36 1007.8
20260503221532 52 296 4.0 20.0 0.00 0.00 0.00 35 1007.8
20260503221014 52 308 4.0 17.0 0.00 0.00 0.00 36 1007.8
20260503220509 52 301 5.0 19.0 0.00 0.00 0.00 36 1007.8
20260503220012 52 298 8.0 19.0 0.00 0.00 0.00 35 1007.8
20260503215506 52 267 7.0 14.0 0.00 0.00 0.00 36 1007.7
20260503215008 52 280 5.0 17.0 0.00 0.00 0.00 35 1007.5
20260503214519 52 311 2.0 17.0 0.00 0.00 0.00 37 1007.4